Change the Weather History Date:

Wednesday, December 19, 2012

  Actual Average Record
Temperature  
Mean Temperature 44 °F 34 °F  
Max Temperature 49 °F 42 °F 54 °F (1997)
Min Temperature 38 °F 27 °F 9 °F (1989)
Degree Days  
Heating Degree Days 21 30  
Month to date heating degree days 404 525  
Since 1 July heating degree days 1366 1541  
Cooling Degree Days 0 0  
Month to date cooling degree days 0 0  
Year to date cooling degree days 993 787  
Moisture  
Dew Point 27 °F    
Average Humidity 52    
Maximum Humidity 65    
Minimum Humidity 39    
Precipitation  
Precipitation 0.00 in 0.12 in 0.92 in (1996)
Month to date precipitation 3.71 2.58  
Year to date precipitation 42.30 44.76  
Snow  
Snow 0.00 in 0.20 in 10.70 in (2009)
Month to date snowfall 0.0 2.7  
Since 1 July snowfall 4.2 3.2  
Snow Depth 0.00 in    
Sea Level Pressure  
Sea Level Pressure 29.79 in    
Wind  
Wind Speed 14 mph (NW)    
Max Wind Speed 25 mph    
Max Gust Speed 35 mph    
Visibility 10 miles    
Events      
T = Trace of Precipitation, MM = Missing Value Source: NWS Daily Summary

Daily Weather History Graph

Daily Weather History Graph

Search for Another Location

Airport or City:

Trip Planner

Search our weather history database for the weather conditions in past years. The results will help you decide how hot, cold, wet, or windy it might be!

Date:

Astronomy

Dec. 19, 2012 Rise Set
Actual Time 7:12 AM EST 4:27 PM EST
Civil Twilight 6:41 AM EST 4:58 PM EST
Nautical Twilight 6:06 AM EST 5:32 PM EST
Astronomical Twilight 5:33 AM EST 6:06 PM EST
Moon 11:17 AM EST (12/19) 11:55 PM EST (12/19)
Length of Visible Light 10h 16m
Length of Day
9h 14m
Waxing Crescent, 45% of the Moon is Illuminated
Dec 19
Waxing Crescent
Dec 20
First Quarter
Dec 28
Full
Jan 4
Last Quarter
Jan 11
New

Hourly Weather History & Observations

Time (EST) Temp. Windchill Dew Point Humidity Pressure Visibility Wind Dir Wind Speed Gust Speed Precip Events Conditions
12:56 AM 44.1 °F 37.7 °F 32.0 °F 63% 29.57 in 10.0 mi WNW 12.7 mph 23.0 mph N/A   Scattered Clouds
1:56 AM 44.1 °F 37.1 °F 30.0 °F 58% 29.59 in 10.0 mi WNW 15.0 mph 25.3 mph N/A   Clear
2:56 AM 43.0 °F 35.4 °F 28.0 °F 56% 29.61 in 10.0 mi WNW 16.1 mph 25.3 mph N/A   Partly Cloudy
3:56 AM 42.1 °F 35.2 °F 28.0 °F 58% 29.61 in 10.0 mi WNW 12.7 mph 21.9 mph N/A   Clear
4:56 AM 42.1 °F 34.2 °F 27.0 °F 55% 29.62 in 10.0 mi WNW 16.1 mph 25.3 mph N/A   Partly Cloudy
5:56 AM 42.1 °F 33.6 °F 26.1 °F 53% 29.64 in 10.0 mi WNW 18.4 mph 28.8 mph N/A   Scattered Clouds
6:56 AM 42.1 °F 34.9 °F 26.1 °F 53% 29.67 in 10.0 mi WNW 13.8 mph 23.0 mph N/A   Mostly Cloudy
7:56 AM 42.1 °F 34.5 °F 26.1 °F 53% 29.70 in 10.0 mi WNW 15.0 mph - N/A   Scattered Clouds
8:56 AM 44.1 °F 36.8 °F 28.0 °F 53% 29.72 in 10.0 mi WNW 16.1 mph 27.6 mph N/A   Scattered Clouds
9:56 AM 45.0 °F 37.1 °F 28.0 °F 52% 29.73 in 10.0 mi WNW 19.6 mph 25.3 mph N/A   Partly Cloudy
10:56 AM 46.9 °F - 28.0 °F 48% 29.73 in 10.0 mi NW 17.3 mph 26.5 mph N/A   Partly Cloudy
11:56 AM 46.9 °F - 28.0 °F 48% 29.73 in 10.0 mi WNW 20.7 mph 28.8 mph N/A   Partly Cloudy
12:56 PM 48.0 °F - 28.0 °F 46% 29.73 in 10.0 mi WNW 16.1 mph 28.8 mph N/A   Partly Cloudy
1:56 PM 48.9 °F - 26.1 °F 41% 29.74 in 10.0 mi NW 16.1 mph 27.6 mph N/A   Partly Cloudy
2:56 PM 48.0 °F - 25.0 °F 41% 29.77 in 10.0 mi NW 18.4 mph 27.6 mph N/A   Partly Cloudy
3:56 PM 46.9 °F - 25.0 °F 42% 29.82 in 10.0 mi NW 15.0 mph 23.0 mph N/A   Partly Cloudy
4:56 PM 45.0 °F 38.5 °F 27.0 °F 49% 29.86 in 10.0 mi NW 13.8 mph - N/A   Partly Cloudy
5:56 PM 44.1 °F 39.5 °F 27.0 °F 51% 29.92 in 10.0 mi NW 8.1 mph - N/A   Partly Cloudy
6:56 PM 43.0 °F 37.7 °F 25.0 °F 49% 29.96 in 10.0 mi NW 9.2 mph - N/A   Clear
7:56 PM 39.9 °F 36.7 °F 27.0 °F 60% 30.01 in 10.0 mi North 4.6 mph - N/A   Partly Cloudy
8:56 PM 39.9 °F 33.9 °F 26.1 °F 58% 30.03 in 10.0 mi NNW 9.2 mph - N/A   Clear
9:56 PM 39.9 °F 32.5 °F 25.0 °F 55% 30.06 in 10.0 mi NNW 12.7 mph - N/A   Clear
10:56 PM 39.0 °F 31.8 °F 25.0 °F 57% 30.07 in 10.0 mi North 11.5 mph - N/A   Clear
11:56 PM 37.9 °F 32.7 °F 25.0 °F 60% 30.08 in 10.0 mi North 6.9 mph - N/A   Clear